This demonstration page uses our WeatherBlox Daily Observations layout. Learn more.

Hourly Observations for February 1, 2018

Temp ( °F °C ) Dew Point ( °F °C ) Humidity (%) Winds ( mph kmh ) Pressure ( in mb ) Visibility ( mi km ) Precip ( " mm )
12:15 am 00:15 Mostly Cloudy 36 2 28 -2.2 74 74 NNW 9 15 30.15 1021 10 16.0934 0 0
12:35 am 00:35 Mostly Cloudy 35 1.6 28 -2.3 76 76 NNW 9 15 30.15 1021 10 16.0934 0 0
12:55 am 00:55 Mostly Cloudy 35 1.6 28 -2.4 75 75 NNW 9 15 30.15 1021 10 16.0934 0 0
1:15 am 01:15 Partly Cloudy 34 1.3 28 -2.2 78 78 NNW 8 13 30.18 1022 10 16.0934 0 0
1:35 am 01:35 Mostly Cloudy 34 1 28 -2.2 79 79 N 8 13 30.18 1022 10 16.0934 0 0
1:55 am 01:55 Mostly Cloudy 33 0.6 28 -2.2 82 82 N 14 22 30.18 1022 10 16.0934 0 0
2:15 am 02:15 Partly Cloudy 32 0.1 28 -2.2 85 85 NNE 12 19 30.21 1023 10 16.0934 0 0
2:35 am 02:35 Mostly Cloudy 31 -0.3 28 -2.3 87 87 NNE 17 28 30.24 1024 10 16.0934 0 0
2:55 am 02:55 Cloudy 30 -1 27 -2.8 88 88 NNE 17 28 30.24 1024 10 16.0934 0 0
3:15 am 03:15 Cloudy 30 -1.2 27 -3 88 88 NNE 16 26 30.24 1024 10 16.0934 0 0
3:35 am 03:35 Cloudy 29 -1.5 26 -3.1 89 89 NNE 15 24 30.24 1024 10 16.0934 0 0
3:55 am 03:55 Cloudy 29 -1.5 26 -3.2 88 88 N 14 22 30.24 1024 10 16.0934 0 0
4:15 am 04:15 Cloudy 29 -1.6 25 -3.8 85 85 N 16 26 30.24 1024 10 16.0934 0 0
4:35 am 04:35 Cloudy 29 -1.9 25 -4.1 85 85 NNE 17 28 30.24 1024 10 16.0934 0 0
4:55 am 04:55 Mostly Cloudy 28 -2.1 24 -4.5 84 84 NNE 16 26 30.24 1024 10 16.0934 0 0
5:15 am 05:15 Partly Cloudy 27 -2.6 24 -4.7 86 86 NNE 15 24 30.27 1025 10 16.0934 0 0
5:35 am 05:35 Mostly Cloudy 25 -3.7 22 -5.5 87 87 NNE 20 31 30.3 1026 10 16.0934 0 0
5:55 am 05:55 Cloudy 24 -4.5 21 -6.2 88 88 NNE 17 28 30.3 1026 10 16.0934 0 0
6:15 am 06:15 Cloudy 23 -5 20 -6.7 88 88 NNE 17 28 30.3 1026 10 16.0934 0 0
6:35 am 06:35 Cloudy 22 -5.5 19 -7.5 86 86 NNE 20 31 30.36 1028 10 16.0934 0 0
6:55 am 06:55 Cloudy 21 -6.2 17 -8.6 83 83 N 16 26 30.36 1028 10 16.0934 0 0
7:15 am 07:15 Cloudy 20 -6.5 16 -9 83 83 NNE 18 30 30.39 1029 10 16.0934 0 0
7:35 am 07:35 Mostly Cloudy 20 -6.6 16 -9 83 83 N 16 26 30.39 1029 10 16.0934 0 0
7:55 am 07:55 Cloudy 20 -6.7 16 -9 84 84 N 16 26 30.42 1030 10 16.0934 0 0
8:15 am 08:15 Cloudy 20 -6.8 15 -9.2 83 83 N 15 24 30.42 1030 10 16.0934 0 0
8:35 am 08:35 Cloudy 19 -7.1 14 -9.9 81 81 NNE 13 20 30.48 1032 10 16.0934 0 0
8:55 am 08:55 Cloudy 19 -7.5 13 -10.4 80 80 NNE 13 20 30.48 1032 10 16.0934 0 0
9:15 am 09:15 Mostly Cloudy 18 -7.7 13 -10.6 80 80 NNE 17 28 30.5 1033 10 16.0934 0 0
9:35 am 09:35 Mostly Cloudy 19 -7 13 -10.6 76 76 NNE 16 26 30.5 1033 10 16.0934 0 0
9:55 am 09:55 Cloudy 19 -7.5 11 -11.5 73 73 NNE 13 20 30.53 1034 10 16.0934 0 0
10:15 am 10:15 Cloudy 19 -7.2 11 -11.9 69 69 N 16 26 30.53 1034 10 16.0934 0 0
10:35 am 10:35 Cloudy 19 -7 10 -12 68 68 N 16 26 30.53 1034 10 16.0934 0 0
10:55 am 10:55 Cloudy 20 -6.7 9 -12.6 63 63 N 17 28 30.56 1035 10 16.0934 0 0
11:15 am 11:15 Cloudy 20 -6.8 9 -12.9 62 62 N 15 24 30.56 1035 10 16.0934 0 0
11:35 am 11:35 Cloudy 20 -6.9 9 -13 62 62 N 12 19 30.56 1035 10 16.0934 0 0
11:55 am 11:55 Cloudy 20 -6.7 8 -13.1 61 61 N 13 20 30.56 1035 10 16.0934 0 0
12:15 pm 12:15 Cloudy 21 -6.1 10 -12.5 61 61 N 15 24 30.56 1035 10 16.0934 0 0
12:35 pm 12:35 Cloudy 21 -6.2 9 -12.9 59 59 N 16 26 30.56 1035 10 16.0934 0 0
12:55 pm 12:55 Cloudy 21 -6 8 -13.1 58 58 NNE 14 22 30.53 1034 10 16.0934 0 0
1:15 pm 13:15 Cloudy 22 -5.7 9 -12.9 57 57 N 9 15 30.53 1034 10 16.0934 0 0
1:35 pm 13:35 Cloudy 21 -5.9 8 -13.2 57 57 N 10 17 30.53 1034 10 16.0934 0 0
1:55 pm 13:55 Cloudy 22 -5.8 9 -13 57 57 N 8 13 30.53 1034 10 16.0934 0 0
2:15 pm 14:15 Cloudy 22 -5.5 9 -12.7 57 57 N 7 11 30.53 1034 10 16.0934 0 0
2:35 pm 14:35 Cloudy 23 -5.1 10 -12.4 57 57 N 9 15 30.53 1034 10 16.0934 0 0
2:55 pm 14:55 Cloudy 23 -5 10 -12 58 58 N 7 11 30.53 1034 10 16.0934 0 0
3:15 pm 15:15 Cloudy 23 -4.8 10 -12.1 57 57 N 8 13 30.53 1034 10 16.0934 0 0
3:35 pm 15:35 Cloudy 23 -4.8 11 -11.9 58 58 N 6 9 30.53 1034 10 16.0934 0 0
3:55 pm 15:55 Cloudy 23 -5.1 11 -11.7 60 60 N 6 9 30.53 1034 10 16.0934 0 0
4:15 pm 16:15 Cloudy 23 -5.2 11 -11.6 61 61 NW 5 7 30.53 1034 10 16.0934 0 0
4:35 pm 16:35 Cloudy 23 -5.2 12 -11.3 63 63 NNW 5 7 30.56 1035 10 16.0934 0 0
4:55 pm 16:55 Cloudy 22 -5.3 12 -11.3 63 63 NNW 5 7 30.56 1035 10 16.0934 0 0
5:15 pm 17:15 Cloudy 22 -5.3 12 -11.1 64 64 NW 5 7 30.56 1035 10 16.0934 0 0
5:35 pm 17:35 Cloudy 22 -5.5 12 -11.1 65 65 NW 5 7 30.56 1035 10 16.0934 0 0
5:55 pm 17:55 Sunny 38 3.4 26 -3.5 61 61 WNW 5 7 30 1016 10 16.0934 0 0
6:15 pm 18:15 Cloudy 22 -5.5 13 -10.8 67 67 NW 3 6 30.56 1035 10 16.0934 0 0
6:35 pm 18:35 Cloudy 22 -5.5 13 -10.8 67 67 W 3 6 30.56 1035 10 16.0934 0 0
6:55 pm 18:55 Cloudy 22 -5.5 13 -10.6 68 68 W 3 6 30.56 1035 10 16.0934 0 0
7:15 pm 19:15 Cloudy 21 -6.3 12 -10.9 70 70 Calm 30.59 1036 10 16.0934 0 0
7:35 pm 19:35 Partly Cloudy 20 -6.4 13 -10.8 71 71 Calm 30.59 1036 10 16.0934 0 0
7:55 pm 19:55 Mostly Cloudy 19 -7 13 -10.8 75 75 Calm 30.62 1037 10 16.0934 0 0
8:15 pm 20:15 Mostly Cloudy 20 -6.5 13 -10.5 74 74 SSW 5 7 30.62 1037 10 16.0934 0 0
8:35 pm 20:35 Cloudy 20 -6.4 13 -10.3 74 74 S 3 6 30.59 1036 10 16.0934 0 0
8:55 pm 20:55 Cloudy 19 -7.1 13 -10.3 78 78 Calm 30.62 1037 10 16.0934 0 0
9:15 pm 21:15 Cloudy 21 -6.1 14 -9.9 75 75 S 6 9 30.62 1037 10 16.0934 0 0
9:35 pm 21:35 Cloudy 21 -6.1 14 -10 74 74 S 5 7 30.62 1037 10 16.0934 0 0
9:55 pm 21:55 Cloudy 22 -5.8 15 -9.6 75 75 S 5 7 30.62 1037 10 16.0934 0 0
10:15 pm 22:15 Cloudy 22 -5.3 15 -9.3 74 74 SSE 3 6 30.56 1035 10 16.0934 0 0
10:35 pm 22:35 Cloudy 23 -5 15 -9.5 71 71 S 5 7 30.59 1036 10 16.0934 0 0
10:55 pm 22:55 Mostly Cloudy 22 -5.5 14 -9.8 72 72 SSW 5 7 30.59 1036 10 16.0934 0 0
11:15 pm 23:15 Cloudy 22 -5.8 14 -10.1 72 72 S 3 6 30.62 1037 10 16.0934 0 0
11:35 pm 23:35 Cloudy 21 -6.1 14 -10.2 73 73 S 6 9 30.59 1036 10 16.0934 0 0
11:55 pm 23:55 Cloudy 21 -6.3 14 -10.2 74 74 S 6 9 30.62 1037 10 16.0934 0 0

Powered by AerisWeather